Regional Weather Roundup
Issued by NWS New Orleans/Baton Rouge, LA

Home | Current Version | Previous Version | Text Only | Print | Product List | Glossary On
Versions: 1 2 3 4 5 6 7 8 9 10 11 12 13 14 15 16 17 18 19 20 21 22 23 24 25 26 27 28 29 30 31 32 33 34 35 36 37 38 39 40 41 42 43 44 45 46 47 48 49 50
000
ASUS44 KLIX 180310
RWRLIX
NEW ORLEANS REGIONAL WEATHER ROUNDUP
NATIONAL WEATHER SERVICE NEW ORLEANS LA
900 PM CST WED DEC 17 2014

NOTE: "FAIR" INDICATES FEW OR NO CLOUDS BELOW 12,000 FEET WITH NO
      SIGNIFICANT WEATHER AND/OR OBSTRUCTIONS TO VISIBILITY.
      SKY/WX - SKY CONDITION AND SIGNIFICANT WEATHER.
      TMP - AIR TEMPERATURE.     DP    - DEWPOINT TEMPERATURE.
      RH  - RELATIVE HUMIDITY.   PRES  - PRESSURE.
      HI  - HEAT INDEX.          WCI   - WIND CHILL INDEX.

*  THESE STATIONS ARE NOT NWS OR FAA STATIONS AND ARE NOT UNDER
   NWS QUALITY CONTROL.

LAZ038-040-048-061>063-065>067-069-180400-
SOUTHEAST LOUISIANA

CITY           SKY/WX    TMP DP  RH WIND       PRES   REMARKS
N.O. AUDUBON     N/A     52  44  74 MISG        N/A
N.O. INTL ARPT CLOUDY    52  41  66 CALM      30.20S
N.O. LAKEFRONT MOCLDY    53  43  68 SE3       30.21S
N.O. DOWNTOWN*   N/A     55  39  54 SE3       30.21S
SLIDELL        MOCLDY    44  41  89 CALM      30.20S
BATON ROUGE    MOCLDY    49  42  77 E6        30.19S
BOOTHVILLE     MOCLDY    54  49  83 E3        30.20F
BELLE CHASSE   CLOUDY    46  42  86 CALM      30.20S
BOGALUSA*        N/A     45  42  88 N3        30.22R
GALLIANO*      CLOUDY    55  49  81 MISG      30.21R
NEW ROADS*       N/A     51  41  69 E5        30.18F
GONZALES*        N/A     49  44  83 CALM      30.19F
HAMMOND*       NOT AVBL
HOUMA*         CLOUDY    49  45  88 NE3       30.20R
PORT FOURCHON* CLEAR     59  52  77 E7        30.22S

$$

MSZ070-080>082-180400-
SOUTHERN MISSISSIPPI

CITY           SKY/WX    TMP DP  RH WIND       PRES   REMARKS
MCCOMB         MOCLDY    44  40  85 CALM      30.19F
GULFPORT       CLOUDY    46  42  86 CALM      30.20S
BILOXI         CLOUDY    51  42  71 NE3       30.20R
PASCAGOULA     CLOUDY    42  40  92 CALM      30.21R

$$

COASTAL OBSERVATIONS
LAKE AND NEARSHORE STATIONS

STATION/POSITION TIME  TEMP    WIND        PRES    WAVE
                       AIR SEA DIR/SP/G            HT/PER
                 (UTC) (F)     (DEG/KT/KT) (MB)    (FT/S)
PASCAGOULA       0300   50      50/  4/  5 1022.1
WAVELAND YACHT   0300   51     300/  2/  2 1022.0
GRAND ISLE       0300   57 62   90/  5/  9 1022.6
SOUTHWEST PASS   0300   56                 1022.5
NEW CANAL        0300   53 58  160/  2/  3 1023.2
SHELL BEACH      0300   54 60  120/  3/  3 1022.6

OFFSHORE STATIONS

STATION/POSITION TIME  TEMP    WIND        PRES    WAVE
                       AIR SEA DIR/SP/G            HT/PER
                 (UTC) (F)     (DEG/KT/KT) (MB)    (FT/S)
64 S DAUPHIN ISL 0300   60 74   70/  6/  8 1022.0    1/ 4

$$




USA.gov is the U.S. government's official web portal to all federal, state and local government web resources and services.